Simultaneous Nadir Overpasses (SNOs) Predictions

Prediction of SNOs between LANDSAT-8 and METOP-B Satellite Orbit:

Table of predicted SNOs for the next 14.0 days since TLE Epoch: 4/30/2022
Index Date (LANDSAT-8) Time (LANDSAT-8) Lat,Lon (LANDSAT-8) SZA (LANDSAT-8 ) Date (METOP-B) Time (METOP-B) Lat,Lon (METOP-B) SZA (METOP-B ) Distance(km) Time Diff (sec)
1 05/01/2022 10:30:25 -81.14,-117.36 111.78 05/01/2022 10:29:31 -81.14,-117.23 111.79 2.25 54
2 05/01/2022 11:19:50 81.17, 50.74 68.28 05/01/2022 11:20:10 81.17, 50.86 68.31 1.92 20
3 05/04/2022 06:04:42 -81.14, -50.87 112.59 05/04/2022 06:03:52 -81.15, -50.71 112.59 2.73 50
4 05/04/2022 06:54:07 81.17, 117.21 67.47 05/04/2022 06:54:31 81.17, 117.35 67.50 2.52 24
5 05/07/2022 01:38:57 -81.15, 15.69 113.36 05/07/2022 01:38:12 -81.15, 15.74 113.37 0.76 45
6 05/07/2022 02:28:22 81.17,-176.26 66.70 05/07/2022 02:28:51 81.17,-176.22 66.71 0.77 29
7 05/09/2022 21:13:13 -81.14, 81.96 114.14 05/09/2022 21:12:33 -81.15, 82.12 114.13 2.77 40
8 05/09/2022 22:02:38 81.16,-110.01 65.92 05/09/2022 22:03:12 81.17,-109.87 65.95 2.57 34
9 05/12/2022 16:47:27 -81.15, 148.67 114.81 05/12/2022 16:46:53 -81.15, 148.81 114.81 2.28 34



Historial Predications of SNOs between LANDSAT-8 and METOP-B
